Location: Namasale
(1.5000°N, 32.6167°E)
Time: 08:59:26
(UTC+00:00)

Vanguard 1 Rocket - Pass Details

Date: 28 April 2021
Orbit: 652 x 4225 km, 34.3° (Epoch: 15 May)

Event Time Altitude Azimuth Distance (km) Brightness Sun altitude
Rises 05:05:19 0° 235° (SW) 8,469 11.8 19.3°
Reaches altitude 10° 05:11:26 10° 235° (SW) 7,340 11.5 20.8°
Maximum altitude 05:35:43 81° 321° (NW) 2,999 10.4 26.7°
Drops below altitude 10° 05:48:46 10° 49° (NE) 4,317 12.0 29.8°
Sets 05:51:22 0° 50° (NE) 4,973 12.1 30.4°
